Miscellaneous Local Product
Issued by NWS Hastings, NE

Home | Current Version | Previous Version | Graphics & Text | Print | Product List | Glossary On
Versions: 1 2 3 4 5 6 7 8 9 10 11 12 13 14 15 16 17 18 19 20 21 22 23 24 25 26 27 28 29 30 31 32 33 34 35 36 37 38 39 40 41 42 43 44 45 46 47 48 49 50
000
AXUS43 KGID 250302
MISGRI

GID CWA HOURLY WEATHER ROUNDUP
NATIONAL WEATHER SERVICE HASTINGS NE
1000 PM CDT SUN MAY 24 2015

NOTE: "FAIR" INDICATES FEW OR NO CLOUDS BELOW 12,000 FEET WITH NO
SIGNIFICANT WEATHER AND/OR OBSTRUCTIONS TO VISIBILITY.

...SOUTH CENTRAL NEBRASKA...

CITY           SKY/WX    TMP DP  RH WIND       PRES   REMARKS
GRAND ISLAND   CLOUDY    63  58  83 S8        29.81R
HASTINGS       CLOUDY    63  59  87 S5        29.81R
KEARNEY        CLOUDY    61  57  88 SE8       29.80F
ORD            CLOUDY    62  58  86 SE5       29.78R
YORK           CLOUDY    63  61  94 S6        29.80R
AURORA         CLOUDY    64  60  88 S8        29.79S
LEXINGTON      MOCLDY    62  58  88 SE7       29.79S
HOLDREGE       MOCLDY    60  57  89 SE7       29.79F
HEBRON         CLOUDY    64  60  87 S3        29.80R

...NEBRASKA PANHANDLE...

CITY           SKY/WX    TMP DP  RH WIND       PRES   REMARKS
CHADRON        CLOUDY    57  55  93 NE10G18   29.81R
ALLIANCE       CLOUDY    53  51  93 N18       29.80R
SCOTTSBLUFF    CLOUDY    54  49  83 W7        29.82R
SIDNEY         CLOUDY    51  48  89 SW3       29.83R

...WESTERN AND NORTH CENTRAL NEBRASKA...

CITY           SKY/WX    TMP DP  RH WIND       PRES   REMARKS
VALENTINE      CLOUDY    59  56  89 E8        29.80R
AINSWORTH      CLOUDY    60  59  96 E6        29.81R
ONEILL         CLOUDY    60  60  99 CALM      29.80R FOG
BROKEN BOW     PTCLDY    61  57  87 S8        29.80R
IMPERIAL       RAIN      52  50  93 SE10      29.84S
NORTH PLATTE   MOCLDY    59  57  93 SE5       29.79R
MCCOOK         TSTM      57  50  77 W24       29.84R

...EASTERN NEBRASKA...

CITY           SKY/WX    TMP DP  RH WIND       PRES   REMARKS
NORFOLK        CLOUDY    61  59  93 CALM      29.78R
SO SIOUX CITY  CLOUDY    62  60  93 CALM      29.77R FOG
TEKAMAH        CLOUDY    64  62  93 CALM      29.76R
COLUMBUS       CLOUDY    61  55  82 CALM      29.81R
ALBION         CLOUDY    59  56  88 E3        29.78S
OMAHA EPPLEY   CLOUDY    68  61  78 SW5       29.77R
OFFUTT AFB     CLOUDY    66  61  85 S5        29.77S
MILLARD        CLOUDY    67  62  83 CALM      29.76S
LINCOLN        CLOUDY    64  61  90 CALM      29.79R
NEBRASKA CITY  CLOUDY    64  63  96 SW7       29.79S
BEATRICE       CLOUDY    63  60  90 CALM      29.79R
FALLS CITY     CLOUDY    64  61  90 S5        29.78F

...NORTHERN KANSAS...

CITY           SKY/WX    TMP DP  RH WIND       PRES   REMARKS
GOODLAND       LGT RAIN  52  49  89 MISG      29.83F
HILL CITY      CLOUDY    63  60  90 S9        29.81R
NORTON         MOCLDY    61  55  82 CALM      29.79S
PHILLIPSBURG   CLOUDY    66  63  88 S5        29.81R
SMITH CENTER   MOCLDY    61  61 100 SE6       29.80R
HAYS           CLOUDY    63  55  77 S10       29.82R
RUSSELL        CLOUDY    63  60  90 S13       29.81R
CONCORDIA      CLOUDY    64  61  90 S9        29.81R
SALINA         CLOUDY    63  58  83 SW8       29.82R
TOPEKA         CLOUDY    64  62  93 CALM      29.82R



USA.gov is the U.S. government's official web portal to all federal, state and local government web resources and services.